Theta_e
312 311 307 308 308 309 309 309 309 309 309 309 309 309 309 310 310 310 311 311 311 312 313 313 313 313 311 310 310 310 310 310 310 310 310 311 311 312 312 313 314 312 311 311 311 312 312 312 313 315 317 318 317 318 318 318 317 316 328 331 320 321 321 317 320 318 319 318 313 313 315 315 315 315 315 316 316 316 315 315 315 316 317 317 317 317 316 315
311 310 308 308 309 309 310 310 310 309 309 310 310 310 310 310 311 311 311 311 312 312 313 312 312 311 310 310 310 310 310 309 310 310 310 311 311 312 313 313 313 312 311 311 312 312 312 313 313 315 317 317 316 317 317 318 317 318 330 330 322 327 321 313 316 313 315 316 313 314 315 315 315 315 315 315 315 315 317 316 315 316 316 316 315 316 316 316
310 309 308 308 309 309 310 310 310 310 310 310 310 310 310 311 311 311 311 311 311 312 312 311 310 310 310 310 310 310 309 309 310 310 310 311 312 312 313 313 312 312 311 312 313 313 313 313 314 315 316 316 316 317 317 318 317 316 325 329 326 325 317 312 314 313 315 315 313 313 314 314 314 315 315 315 314 314 316 316 315 316 315 315 314 316 317 317
310 309 308 308 309 309 310 310 310 310 310 310 310 310 310 311 311 312 311 311 311 311 311 310 310 310 310 310 310 309 309 309 310 311 311 312 313 313 313 313 311 311 311 311 312 313 314 314 314 315 315 316 315 316 317 317 315 314 322 328 322 316 315 315 315 314 315 315 314 314 314 314 314 315 315 314 315 314 315 315 315 315 314 314 314 315 316 317
309 309 309 308 308 309 309 310 309 310 310 310 310 310 310 311 311 311 311 311 311 310 310 310 310 310 310 310 309 309 310 310 312 311 310 312 314 313 312 312 312 311 311 312 312 314 314 314 314 314 315 314 315 316 317 316 316 315 316 318 315 313 316 316 314 315 314 314 315 313 314 315 314 314 314 314 316 316 315 315 315 315 314 315 314 314 315 315
309 309 309 308 308 309 309 309 309 310 310 310 310 310 310 310 311 311 310 310 310 310 310 310 310 310 310 310 309 310 311 312 315 313 311 313 313 312 312 312 312 311 312 312 312 314 314 314 314 314 314 314 315 316 316 314 315 318 315 313 314 314 315 315 315 315 314 314 314 312 314 315 314 315 314 313 315 316 315 315 315 315 315 315 315 314 314 314
309 309 309 308 308 309 309 309 309 310 310 310 310 310 310 310 311 310 310 311 310 311 310 310 310 310 310 310 309 310 311 313 316 314 312 314 313 312 312 311 312 312 312 312 312 313 314 314 314 314 314 314 314 314 316 315 314 320 318 313 314 314 314 315 315 315 314 315 314 314 315 315 315 316 315 314 315 315 316 316 315 316 315 315 315 315 314 315
310 309 309 308 308 308 308 309 309 310 310 310 310 310 310 310 310 310 310 310 310 311 311 310 310 310 310 310 309 310 311 313 315 314 314 315 314 312 312 312 312 312 312 312 312 312 314 314 313 314 314 313 314 314 315 314 314 319 318 313 313 314 314 314 314 315 315 315 315 315 315 315 315 315 314 315 315 315 316 317 316 316 316 315 316 315 315 315
310 309 309 308 308 308 308 308 309 310 310 310 310 310 310 310 310 310 310 310 311 310 311 310 309 309 310 309 309 310 310 311 313 314 315 315 313 312 312 312 312 312 312 312 312 313 314 314 314 314 314 313 314 314 314 315 314 315 315 313 313 313 313 314 314 315 315 315 315 315 314 314 314 314 315 316 315 316 316 316 316 316 316 316 316 316 315 315
311 310 309 309 308 308 308 308 308 309 310 310 310 310 310 310 310 310 310 310 310 310 311 310 309 309 310 309 310 311 312 312 312 313 315 315 312 312 312 312 312 312 312 312 312 313 314 314 314 314 314 314 314 313 313 315 315 314 313 313 313 313 313 314 314 314 315 314 314 316 315 314 314 314 316 316 315 315 315 316 315 316 316 316 316 316 316 315
314 311 309 309 308 308 308 307 308 309 309 310 310 310 310 310 310 310 310 310 310 311 311 310 309 309 309 309 310 312 315 314 313 314 313 313 312 312 312 312 313 312 312 312 312 314 314 315 315 315 315 315 314 314 314 314 315 314 313 314 312 313 313 313 314 314 315 315 314 315 314 313 314 315 316 315 315 315 315 315 315 315 316 315 315 315 315 315
316 313 310 309 308 308 308 307 308 308 309 309 310 310 310 310 310 310 310 310 310 310 311 310 309 309 309 309 309 311 315 316 315 314 313 312 312 312 312 313 313 312 312 312 313 314 315 315 315 315 315 315 315 315 315 315 314 313 315 318 314 314 316 313 313 313 314 315 315 314 313 315 316 316 316 315 315 316 315 315 315 315 315 315 316 315 315 315
316 314 311 309 308 308 308 308 307 308 309 309 309 310 310 310 310 310 310 310 310 311 311 310 308 308 309 309 309 310 314 315 314 313 312 311 312 312 313 313 313 313 313 313 314 315 315 316 315 315 315 314 315 314 315 314 314 315 314 317 318 315 315 313 312 314 315 315 315 313 315 323 322 315 315 315 315 316 315 315 315 315 316 315 315 315 315 315
316 315 312 310 309 308 308 308 307 308 308 308 309 309 310 310 310 310 310 310 310 310 311 310 308 308 308 309 311 311 311 313 313 312 312 312 312 313 313 313 314 313 314 313 314 315 315 316 315 315 315 314 315 314 316 314 314 317 312 317 321 315 316 316 312 313 315 314 315 313 316 326 325 315 314 315 315 316 315 315 315 315 315 315 315 315 315 315
316 315 313 311 309 308 308 308 308 308 308 308 309 309 309 309 310 309 310 310 310 310 311 310 308 308 308 309 311 312 310 311 313 312 311 312 312 313 313 314 315 314 314 314 314 315 315 315 315 315 314 315 315 315 318 318 318 320 316 319 318 313 318 319 313 312 315 315 314 314 317 324 321 315 315 315 315 316 316 315 315 316 315 316 316 315 316 316
315 314 314 312 310 309 308 308 308 308 308 308 308 309 309 309 309 309 310 310 310 310 310 309 307 308 308 309 312 313 312 312 313 312 311 313 312 313 314 314 315 314 314 313 313 314 315 316 315 315 314 314 315 318 321 321 322 323 321 321 320 315 318 319 315 312 313 315 314 313 317 323 320 315 315 315 315 316 316 316 316 316 316 316 316 316 316 316
314 315 315 313 311 309 309 308 308 308 308 308 308 308 308 309 309 309 309 309 310 309 308 307 307 309 309 310 313 314 313 313 312 311 312 312 312 313 313 314 315 314 314 314 314 314 315 316 315 315 315 314 316 319 319 317 319 321 320 320 322 321 319 320 319 313 312 315 316 315 316 322 320 314 316 316 316 316 316 316 317 317 317 317 317 316 317 316
316 316 315 313 312 310 309 308 308 308 308 308 308 308 308 308 308 309 309 309 309 308 308 308 308 310 310 310 314 314 313 313 311 312 312 312 313 313 314 315 314 315 315 315 314 315 315 314 315 318 317 315 316 318 319 319 319 319 319 318 319 319 319 320 320 315 313 315 317 317 317 321 320 314 314 316 315 315 316 317 317 317 316 316 317 316 317 317
317 315 314 313 312 311 309 308 308 308 308 308 308 308 308 308 308 308 308 308 309 308 309 310 309 311 313 310 312 314 313 313 312 312 312 312 312 313 314 314 314 315 314 314 315 314 315 314 315 318 318 317 316 318 324 325 322 321 322 324 324 322 318 318 319 314 313 317 318 318 319 320 321 316 314 314 315 313 314 316 315 316 316 316 316 316 317 316
316 315 314 313 312 311 310 308 308 308 308 308 308 308 308 308 309 309 308 307 309 309 311 311 309 311 313 310 312 314 313 313 312 311 312 312 312 313 314 314 314 315 314 317 317 313 316 319 317 317 318 317 318 321 323 320 319 319 322 327 326 324 319 315 317 313 310 315 317 316 318 318 320 317 312 312 313 311 311 312 313 315 315 315 316 316 316 316
316 316 315 313 312 311 310 309 308 308 308 308 308 308 308 308 310 310 308 307 309 311 311 311 309 311 313 310 312 314 313 313 312 312 313 312 313 313 313 313 314 314 313 315 316 315 319 320 319 320 318 316 318 319 317 315 318 319 321 325 322 322 321 315 316 316 310 313 317 316 317 317 317 316 311 310 310 310 310 311 312 314 315 315 316 315 316 317
315 315 314 314 313 311 310 309 308 308 308 308 308 308 308 308 310 311 309 308 309 310 312 312 309 311 313 310 312 314 313 313 312 313 314 312 314 313 312 314 315 316 313 312 315 317 319 320 323 321 312 312 316 316 317 320 323 324 322 322 321 319 319 315 316 319 313 312 318 320 319 318 316 315 311 308 310 311 311 311 312 314 313 314 315 315 315 316
314 315 315 314 313 311 310 310 309 308 308 308 308 308 308 309 311 311 309 308 309 309 312 312 310 311 313 312 313 314 313 313 313 313 313 313 313 312 312 313 315 317 314 314 318 317 317 319 320 313 308 313 316 315 319 320 322 327 325 321 320 318 318 319 316 317 315 313 317 320 320 318 316 319 318 311 310 312 313 313 314 313 314 314 314 314 315 315
314 314 314 314 312 311 310 310 309 308 308 308 308 308 308 309 311 311 309 309 309 309 310 311 311 311 313 314 313 313 313 313 313 313 312 313 312 312 312 311 315 317 314 316 317 316 317 316 312 309 312 318 316 315 320 319 316 322 330 331 325 320 320 320 317 316 316 315 317 318 318 325 328 329 330 319 310 311 313 314 315 315 315 316 316 315 316 316
313 313 313 313 311 311 310 310 309 308 308 308 308 309 308 309 311 311 310 310 310 310 309 310 312 311 312 313 313 313 313 312 313 313 312 312 312 312 312 311 314 317 315 315 315 316 316 312 310 312 317 321 318 317 321 322 317 315 323 328 325 325 323 320 319 320 319 316 316 314 315 332 339 329 329 325 316 314 312 309 312 316 315 314 316 316 316 317
312 312 312 311 310 310 310 309 309 308 307 307 308 309 308 309 311 311 312 313 313 311 309 309 311 312 312 314 314 313 313 313 313 313 312 312 312 312 312 311 312 314 314 313 314 316 314 311 313 317 321 322 320 319 317 321 320 313 316 320 323 329 326 322 320 317 318 315 314 316 315 322 329 323 322 321 316 316 314 310 311 314 314 311 313 314 315 316
312 311 311 311 310 310 309 309 308 307 307 307 309 310 308 310 311 310 313 314 313 311 309 309 310 312 312 313 313 313 315 315 313 313 312 312 312 312 312 312 312 312 312 312 315 315 314 315 316 321 327 323 319 318 315 320 320 312 317 322 325 330 326 327 325 319 320 316 318 325 322 316 320 322 320 317 316 319 320 319 315 312 312 312 312 314 315 316
311 310 311 311 309 309 309 308 308 307 307 308 310 310 309 310 311 310 313 313 311 310 309 309 309 312 312 313 313 313 314 315 314 314 312 312 313 312 313 313 313 315 311 311 317 314 313 319 318 321 327 322 318 319 318 325 325 316 318 323 325 328 330 333 332 327 322 315 320 328 319 315 324 328 324 317 317 321 323 325 318 311 312 313 314 316 316 317
311 310 311 311 309 309 309 308 308 307 308 310 311 310 310 311 310 310 312 310 310 310 309 309 310 312 312 312 312 312 313 313 314 314 312 312 313 311 313 311 312 318 312 311 321 316 311 315 315 318 322 318 318 318 318 328 326 315 316 321 322 325 328 330 329 325 316 313 322 327 316 313 322 329 327 317 316 321 323 324 316 309 313 315 315 317 317 318
311 310 310 310 309 309 309 309 308 307 309 310 311 311 310 310 310 309 308 309 312 311 307 308 310 311 313 312 311 312 313 313 312 313 312 313 313 311 313 311 312 321 320 317 322 318 312 311 312 314 315 315 316 315 315 319 316 312 320 324 322 325 329 332 331 322 311 317 328 326 318 314 315 326 329 319 319 322 321 323 319 312 315 316 316 318 318 318
311 310 310 309 309 309 310 309 307 307 309 310 311 311 310 311 312 309 308 310 315 312 307 309 311 312 313 312 312 312 313 313 311 312 312 312 313 312 312 312 313 320 321 320 321 316 314 314 313 312 311 311 315 316 314 314 313 315 326 325 316 321 326 329 332 320 311 322 327 321 318 315 314 324 328 322 322 321 317 322 324 318 316 316 317 318 318 318
311 311 310 308 308 310 310 309 307 308 310 310 311 310 309 311 311 310 309 310 313 312 311 311 311 312 313 312 313 313 315 314 310 311 314 314 314 313 314 315 316 317 316 319 320 315 316 318 313 311 311 312 318 321 317 319 321 318 321 320 315 319 320 322 329 322 318 322 319 317 318 315 316 321 322 323 325 322 315 315 318 316 315 317 318 318 318 317
312 312 310 308 309 310 311 310 307 309 310 310 311 310 311 312 309 310 310 310 312 312 312 311 311 312 312 312 313 314 315 315 311 311 312 314 314 314 315 316 316 318 317 319 320 316 319 321 314 312 314 312 316 320 317 320 322 317 316 318 318 320 317 320 324 319 319 322 316 315 316 316 320 319 318 322 319 315 313 311 314 315 316 318 318 318 318 316
313 313 311 308 309 311 311 310 308 309 311 311 310 310 312 311 309 310 310 311 314 312 310 312 312 312 312 311 313 313 314 314 312 312 312 313 314 314 315 313 314 321 322 318 318 318 320 322 318 316 315 314 314 316 319 322 319 317 317 315 316 323 324 323 324 322 323 324 317 313 316 322 324 316 314 315 312 312 313 313 315 315 317 319 317 318 318 316
313 313 311 309 309 311 312 310 309 310 311 311 310 309 310 310 309 310 309 311 315 312 310 312 312 312 312 311 312 312 313 314 312 313 314 314 313 313 314 311 313 321 321 315 315 316 316 318 319 315 311 313 315 313 316 320 318 316 315 312 312 321 326 321 319 322 322 320 317 315 319 325 321 314 313 310 309 312 312 313 314 314 317 317 317 318 317 316
313 312 311 310 309 311 312 310 309 310 311 311 309 309 309 309 310 310 309 311 314 312 311 312 312 313 312 311 312 311 312 315 314 313 314 313 312 313 313 312 313 315 315 316 317 316 314 315 316 315 311 312 314 312 312 314 316 315 313 318 319 318 325 321 313 313 314 313 317 317 319 321 316 315 318 314 312 313 311 312 313 314 316 315 316 317 316 317
313 311 311 310 309 311 312 311 310 310 311 311 309 309 309 308 310 311 309 310 312 311 312 312 312 313 312 311 313 313 313 315 314 313 314 313 313 313 312 312 312 311 313 316 317 317 319 318 315 315 315 311 309 311 311 310 314 318 318 320 317 312 320 323 315 317 318 316 319 318 316 318 315 317 321 316 313 315 315 313 311 313 316 314 316 316 315 317
313 311 311 310 309 310 311 311 310 310 311 311 310 310 310 308 309 311 310 310 311 312 313 313 312 313 312 311 312 312 313 314 313 314 314 312 314 314 312 312 312 311 311 311 313 317 321 321 314 312 316 313 310 313 315 311 310 316 318 315 316 318 320 319 316 319 319 316 322 321 315 314 314 317 319 315 315 317 316 317 315 314 314 315 316 315 315 317
312 311 311 311 310 310 311 311 310 310 311 312 311 311 310 309 308 310 310 310 311 312 313 315 314 312 311 312 312 311 312 313 312 313 313 312 314 313 311 311 313 311 308 310 314 316 318 321 316 311 313 313 313 315 319 318 312 312 313 310 316 324 323 319 317 318 318 315 318 321 319 317 316 318 319 315 317 318 317 320 319 312 311 315 315 314 315 315
310 310 312 312 310 310 310 310 310 311 311 311 310 310 310 310 308 309 311 310 312 313 314 317 315 312 312 313 311 311 312 313 312 312 313 313 313 312 310 311 313 312 308 309 314 315 316 319 317 313 312 313 316 317 318 319 316 315 317 315 317 318 317 319 318 317 320 320 320 319 318 320 319 317 317 316 318 318 316 320 317 310 311 315 314 314 315 315
307 307 310 312 311 310 310 311 311 311 311 311 310 310 311 311 309 308 311 311 311 312 314 317 316 314 315 313 312 312 313 314 313 312 313 313 312 312 311 311 311 312 311 309 313 317 315 315 318 316 315 316 319 318 314 316 317 316 316 317 317 316 317 318 316 315 317 318 321 318 315 318 319 315 317 318 319 316 312 311 312 311 313 315 314 315 316 315
307 306 309 312 312 310 309 311 311 311 311 311 309 309 311 312 312 309 309 312 313 312 313 315 315 314 314 313 313 314 314 314 313 313 313 312 312 313 312 311 310 311 312 312 313 315 313 317 323 320 317 318 318 312 307 311 316 314 315 317 317 317 318 319 320 319 316 314 316 318 317 317 314 312 316 316 313 312 310 310 312 314 315 316 315 316 316 315
305 306 308 311 312 310 309 311 311 310 311 310 308 309 310 312 315 314 311 312 314 314 313 313 313 312 313 315 314 314 313 313 313 313 314 313 312 313 311 311 311 310 311 314 313 311 312 319 322 319 319 320 319 314 309 310 313 314 316 317 316 318 320 324 327 324 319 317 316 316 318 316 312 310 309 308 309 311 312 313 314 315 316 316 316 316 315 315
305 306 307 309 311 310 309 310 310 310 310 309 308 309 310 311 314 316 316 314 315 316 314 314 313 311 314 318 315 313 312 313 313 313 314 315 313 312 310 310 312 311 311 313 314 312 313 318 319 319 321 320 320 319 316 314 314 316 320 318 316 319 320 319 320 317 317 321 319 317 317 315 315 314 310 311 314 313 312 313 314 315 315 315 315 315 315 314
307 306 306 307 308 309 310 310 309 309 309 309 309 310 310 311 312 314 316 316 315 316 315 314 313 312 316 317 313 312 313 314 316 313 313 316 314 310 310 310 311 311 311 312 311 311 315 318 318 317 318 317 317 317 317 317 314 316 321 319 316 318 317 316 318 317 316 319 318 316 316 314 315 316 315 317 319 316 314 313 313 314 314 314 314 314 315 315
308 307 306 305 305 306 308 309 309 308 308 309 310 310 310 311 311 312 314 315 314 315 315 315 314 312 315 315 313 313 313 314 317 316 313 315 317 313 310 310 311 310 311 311 309 314 321 320 315 314 315 314 314 317 319 320 317 316 319 319 315 315 315 317 320 319 317 317 315 315 315 314 314 315 315 318 319 319 315 311 311 314 313 314 315 314 315 314
307 307 306 306 306 305 305 306 308 308 308 308 309 310 309 310 312 311 313 314 314 315 316 316 315 314 315 315 314 314 313 313 316 316 313 314 318 315 311 310 311 310 312 311 309 316 324 318 313 314 315 312 314 319 321 319 318 317 317 317 316 315 315 317 318 317 317 317 316 314 314 314 314 313 315 317 317 316 312 308 310 313 312 313 314 313 313 313
305 306 306 307 308 307 306 306 306 308 309 308 308 310 309 310 311 311 313 314 313 314 316 317 318 319 317 315 314 315 314 313 314 316 315 314 317 316 313 312 311 310 312 311 309 315 320 317 314 314 314 313 314 318 319 318 317 317 316 316 316 314 315 316 315 315 316 316 315 315 316 316 313 313 315 315 312 312 311 310 311 312 312 313 313 313 314 314
304 305 306 307 308 307 307 307 306 307 309 308 309 310 310 310 310 310 313 314 314 314 315 316 320 321 319 316 315 316 315 313 314 315 315 316 318 317 316 316 313 310 312 313 310 310 315 319 318 314 313 314 315 317 318 317 316 316 315 315 315 314 314 314 314 314 314 315 315 315 317 316 313 312 314 313 311 311 311 310 311 311 312 313 313 313 314 314
303 304 305 306 307 307 306 306 306 307 308 308 309 310 310 310 310 310 312 313 315 315 314 316 319 320 320 318 315 316 315 314 314 315 315 316 317 318 318 318 316 312 312 314 312 309 312 320 319 314 313 314 314 315 316 315 315 316 316 314 314 314 314 313 313 314 313 313 314 314 315 314 312 311 312 312 311 311 311 310 311 312 312 312 313 313 313 314
301 304 303 303 305 307 307 306 305 306 308 308 308 309 310 310 309 309 311 311 311 314 315 317 319 320 318 317 317 318 316 314 314 314 314 315 315 316 316 315 315 316 315 314 314 313 313 316 315 314 315 315 315 316 314 312 312 314 316 315 313 313 314 313 313 313 314 314 314 314 314 314 312 311 312 311 310 310 310 310 311 312 312 313 313 313 314 314
298 301 302 302 304 306 307 307 305 306 308 307 307 309 309 310 309 309 310 310 310 312 314 315 317 319 318 318 319 319 315 313 313 312 312 313 312 312 313 312 312 315 317 315 316 317 317 317 317 316 317 317 316 314 313 313 313 315 316 316 313 311 312 312 312 313 314 314 315 315 314 313 312 312 313 313 310 309 310 311 312 312 313 313 313 314 314 314
Wind_Speed
20 21 22 22 22 22 22 22 22 22 22 22 22 22 23 23 24 24 24 23 21 20 19 19 17 16 14 13 12 12 11 11 12 12 13 13 13 12 13 12 8 8 9 9 9 10 11 10 10 12 12 10 7 6 7 6 3 0 3 3 1 3 3 5 6 7 5 6 8 13 15 11 6 8 11 9 10 14 10 8 10 9 9 8 7 10 18 22
21 22 22 22 23 23 23 23 22 22 22 22 22 22 22 22 22 23 23 21 20 20 18 17 16 15 13 13 13 12 11 11 12 13 13 12 13 13 12 13 9 8 9 9 10 11 11 11 11 12 12 9 5 6 7 5 4 2 3 3 3 5 4 3 5 8 5 8 14 15 15 13 11 13 14 8 6 11 8 6 9 10 11 10 10 14 17 20
22 23 23 23 24 24 23 23 23 22 22 22 22 22 21 21 21 21 21 20 19 18 17 15 14 14 14 14 13 11 11 11 12 13 13 13 13 13 12 12 9 9 10 10 11 11 12 12 12 12 11 7 5 7 7 5 4 2 3 2 4 6 4 1 3 8 7 13 18 15 14 11 12 16 13 9 7 8 7 8 9 11 14 13 13 15 16 18
23 24 24 23 24 24 24 23 23 23 22 22 22 22 21 20 20 20 19 18 17 16 15 14 14 14 14 14 12 11 10 8 11 13 14 14 12 12 12 10 9 9 10 12 12 12 12 11 11 11 8 5 4 6 6 5 5 2 4 3 5 5 3 1 2 5 9 19 22 17 12 8 12 15 12 12 8 3 10 15 13 13 16 16 16 16 16 17
23 24 24 24 24 24 24 24 23 23 23 22 22 22 21 20 19 19 18 17 16 15 14 14 14 15 14 14 12 11 9 3 8 13 14 14 12 11 12 10 10 10 11 12 12 12 11 9 10 11 6 3 4 4 4 6 6 3 1 2 3 4 3 0 1 3 10 19 20 16 11 8 12 12 12 15 9 6 14 16 14 14 15 16 17 17 18 18
22 22 23 24 25 24 25 24 24 24 23 22 22 22 21 19 18 17 17 16 15 14 14 14 14 15 14 14 12 12 11 2 4 13 14 14 13 11 12 11 11 10 11 12 12 13 11 8 9 11 6 2 4 4 4 8 6 3 1 1 2 4 4 3 2 6 13 17 16 14 11 10 11 7 10 15 12 9 10 13 14 13 14 15 17 18 19 19
22 22 23 24 25 24 24 24 24 24 23 23 22 21 20 19 18 16 16 15 14 14 14 14 14 14 14 14 12 13 14 5 3 11 15 14 13 12 12 12 12 11 12 12 13 14 12 10 10 11 6 2 4 4 5 8 5 4 2 1 3 5 7 6 4 9 14 15 14 13 12 11 9 5 7 13 15 11 6 8 11 14 15 16 17 19 19 18
21 22 23 24 24 24 24 24 24 24 23 23 21 21 20 18 17 16 15 14 14 13 14 14 14 14 14 14 13 11 14 10 3 6 12 14 12 12 12 12 13 12 13 12 12 14 13 12 11 10 5 1 5 5 7 7 3 3 3 3 4 6 8 8 8 11 13 12 11 12 10 9 9 4 5 12 14 12 9 8 8 11 15 18 19 19 19 19
21 21 22 23 24 24 24 24 24 24 23 23 22 21 19 18 17 16 15 14 13 13 13 14 13 14 14 14 12 8 11 13 6 4 11 14 12 13 13 12 13 13 14 13 13 15 14 13 12 10 4 4 7 6 8 6 0 3 6 6 6 6 7 8 8 10 11 9 9 9 4 5 8 2 6 13 15 15 14 12 10 10 13 16 18 18 19 19
20 21 22 23 24 24 24 24 24 24 24 23 22 21 19 18 17 16 15 14 13 12 13 13 13 15 14 14 12 6 9 12 8 7 11 14 13 13 13 12 13 14 15 15 14 15 15 11 11 10 4 5 9 5 5 6 4 8 12 9 7 6 5 5 6 8 9 7 6 7 2 2 5 1 5 10 13 18 17 15 14 13 13 15 17 18 19 19
17 19 21 23 25 25 24 24 24 24 24 23 22 21 19 18 17 16 15 13 13 12 12 12 13 14 14 15 13 7 8 10 9 10 13 15 14 13 13 13 13 14 16 17 16 15 14 9 10 11 4 5 9 5 4 6 8 15 17 10 6 3 2 3 6 6 6 4 2 4 2 1 2 2 8 8 10 18 19 18 17 17 16 16 17 18 19 20
16 18 21 23 25 25 24 24 25 25 24 24 22 21 20 19 17 16 15 14 13 12 12 12 13 14 14 14 16 12 7 6 9 12 15 16 15 12 12 13 13 14 16 17 16 14 11 8 11 10 5 9 8 4 5 10 14 16 13 7 5 6 3 2 3 3 3 3 2 4 2 4 2 8 11 6 8 15 19 21 20 20 19 18 18 19 20 20
17 18 21 22 25 25 24 24 25 25 25 24 23 22 20 19 18 16 16 14 13 12 11 12 12 13 13 12 14 15 9 4 8 14 17 16 14 12 12 12 13 13 14 16 14 12 11 9 10 9 10 12 6 5 9 11 13 9 4 5 3 6 3 3 1 2 3 3 3 5 1 6 6 14 14 5 6 12 19 23 22 22 20 19 20 20 21 21
19 19 21 22 24 25 24 24 25 25 25 24 23 23 21 20 18 17 16 14 13 12 11 11 12 12 13 10 9 14 13 7 8 16 18 15 14 13 13 13 13 12 12 14 14 12 11 9 8 9 10 10 9 12 9 5 6 3 2 3 3 2 3 5 1 4 5 2 3 5 2 5 7 11 10 8 11 13 18 21 22 22 21 21 21 22 23 22
20 20 21 22 24 25 25 25 25 26 25 24 24 23 22 21 19 18 16 14 13 11 11 11 11 11 10 8 6 11 14 10 10 17 17 14 14 13 14 14 12 11 10 12 14 12 10 9 9 9 10 11 15 12 4 3 3 3 3 1 2 4 4 7 2 6 5 2 2 4 2 6 8 7 3 6 14 13 16 18 19 21 21 22 23 23 24 23
21 20 20 21 24 25 25 26 26 26 25 24 24 23 22 21 19 18 16 14 13 12 11 10 12 11 6 5 7 9 12 12 13 18 16 14 14 13 14 14 11 10 10 12 14 13 12 10 9 10 10 10 10 7 4 4 3 4 3 2 2 3 2 4 2 4 4 2 0 2 2 3 5 4 2 6 13 14 16 17 18 20 21 22 23 24 25 25
21 20 20 22 24 24 24 26 26 26 25 24 23 22 21 20 19 17 16 15 13 12 11 10 12 11 4 5 8 9 13 14 15 19 16 14 14 14 14 13 12 12 11 13 14 14 13 10 10 8 6 5 4 5 6 1 3 2 2 1 3 3 3 2 3 3 2 3 1 1 2 6 7 6 2 4 8 12 16 18 19 20 21 22 23 25 27 27
21 20 21 23 23 23 24 25 26 25 24 24 22 21 20 19 17 16 15 16 14 12 10 10 13 7 6 10 9 10 15 15 17 19 16 15 15 15 14 12 13 14 14 13 10 11 9 6 7 4 3 3 2 5 5 4 6 6 3 3 2 2 3 3 3 3 2 3 1 1 2 9 10 11 12 10 9 12 18 20 21 22 24 25 26 28 28 28
21 20 20 22 23 23 23 24 25 24 24 24 23 21 20 18 16 14 16 17 15 10 5 11 17 6 3 12 14 11 16 17 18 20 17 17 16 15 13 13 15 16 13 8 5 7 7 4 5 3 2 4 6 6 6 8 9 9 7 5 5 4 3 4 3 4 2 3 3 4 5 8 9 10 14 18 16 15 20 23 26 28 29 30 30 31 30 30
20 20 19 21 22 22 23 24 24 24 25 24 25 22 18 16 11 7 14 19 17 8 0 12 23 7 5 11 20 14 15 18 19 21 19 18 18 15 14 14 14 11 7 5 4 4 5 4 3 5 7 8 8 7 5 5 7 8 6 5 4 4 2 3 2 4 1 3 4 4 5 9 11 10 14 22 18 14 20 24 29 32 33 33 32 32 32 32
21 20 19 20 21 21 22 24 24 25 25 25 28 24 18 19 11 5 13 15 15 10 2 9 23 11 3 10 21 18 16 17 19 22 21 20 19 14 12 11 8 4 2 4 5 3 4 5 6 7 9 8 7 6 6 6 6 6 6 6 3 2 2 2 2 4 3 1 3 3 3 9 12 11 15 20 13 14 23 24 28 33 33 33 33 33 33 31
22 20 20 20 20 20 21 23 24 26 27 27 31 26 19 23 16 11 16 9 12 12 1 8 22 13 3 9 18 18 16 13 15 22 21 20 19 12 10 7 5 4 1 4 6 4 4 3 8 8 7 6 4 5 8 7 6 5 4 6 3 2 2 2 3 4 3 1 3 5 4 9 11 10 15 19 16 21 26 24 28 32 31 32 33 33 32 31
23 22 22 20 19 21 22 23 24 27 29 29 33 27 20 24 16 12 17 8 9 15 6 9 19 15 7 10 17 17 15 11 12 22 22 20 18 12 10 7 4 5 3 4 6 5 3 5 7 4 7 8 6 4 8 7 5 4 4 5 3 2 2 1 3 4 3 2 1 3 4 8 8 6 11 17 19 23 23 21 27 29 29 32 31 31 30 29
23 24 23 20 19 22 23 23 25 29 31 31 32 28 21 23 18 13 15 5 2 13 12 10 15 18 13 11 16 16 12 11 13 22 25 22 18 12 10 8 6 5 4 5 8 7 4 5 2 6 5 7 7 4 6 7 3 2 3 6 4 3 4 3 1 1 3 4 3 3 4 6 5 5 7 8 8 12 13 13 19 22 23 25 27 27 26 25
22 22 22 21 19 21 23 24 27 31 32 32 31 27 22 22 19 15 12 3 1 7 11 12 11 16 17 12 16 17 11 9 11 21 26 24 20 11 7 8 6 4 5 6 8 5 4 3 3 6 5 6 8 3 4 7 3 1 2 5 7 7 6 3 3 3 4 5 3 4 4 6 5 5 7 6 5 8 9 11 18 22 19 19 22 21 19 20
21 21 21 21 19 20 23 22 27 32 32 32 30 25 23 22 19 17 10 4 2 3 6 12 9 12 18 13 16 16 6 6 10 20 26 23 20 12 7 5 3 4 6 6 5 2 2 1 4 6 5 6 6 3 4 6 6 1 3 5 7 8 8 5 4 3 2 2 3 4 2 5 7 6 8 7 7 10 12 13 22 29 24 18 19 17 15 15
20 21 20 21 20 21 22 19 27 34 30 30 29 25 25 24 20 16 8 5 3 5 7 10 8 11 15 13 20 14 2 7 10 16 25 22 17 12 7 5 2 3 5 5 3 1 1 3 5 6 6 6 5 2 4 6 8 3 2 6 8 8 7 6 6 4 2 3 4 5 4 2 6 7 8 6 6 10 12 12 18 26 23 16 13 12 10 10
21 20 20 21 19 19 19 19 28 35 30 29 29 27 27 25 21 15 6 2 2 6 7 8 9 12 13 16 23 13 5 12 9 10 22 21 15 9 5 6 6 4 3 5 5 3 1 4 4 6 6 3 4 3 4 8 6 4 4 7 6 6 7 5 6 4 1 2 4 5 1 2 5 7 6 4 4 8 11 11 13 20 20 13 8 7 6 7
20 19 20 22 17 16 20 19 27 33 29 29 29 26 27 26 21 10 3 2 3 4 4 9 11 11 13 16 17 9 8 9 4 11 21 18 13 7 2 7 9 7 4 4 6 3 1 3 5 6 6 4 4 2 3 5 3 4 7 7 5 6 6 5 5 4 3 2 5 6 1 2 5 7 5 2 2 7 9 9 10 15 15 7 3 3 5 8
18 18 18 21 18 20 21 18 25 29 27 29 28 26 29 24 14 6 2 4 2 2 3 9 10 11 14 12 6 5 6 3 5 15 15 11 11 6 6 9 9 8 5 7 4 1 2 1 1 3 3 5 5 2 1 3 6 10 8 7 7 6 6 4 3 4 3 2 7 7 3 1 3 6 5 3 4 6 5 7 9 10 6 3 3 2 5 7
15 16 14 18 22 25 22 20 26 29 28 29 28 28 27 14 5 4 5 3 2 2 3 4 5 8 15 13 5 4 3 2 7 15 9 5 7 5 7 7 5 6 4 5 4 4 5 4 2 2 1 5 7 5 5 4 6 9 5 5 4 4 4 4 4 3 1 5 6 5 2 3 4 6 5 5 7 6 5 6 8 7 4 3 4 5 7 6
14 14 12 16 25 26 21 22 28 30 29 29 29 29 19 5 1 4 3 2 3 4 4 5 5 6 13 11 5 5 4 2 5 8 6 4 4 4 5 5 4 4 2 3 2 3 3 1 3 3 1 4 6 5 4 5 5 6 5 6 4 2 2 2 3 1 3 6 4 3 1 2 5 7 8 10 10 8 8 10 9 9 8 6 6 7 7 6
16 13 12 19 26 25 20 22 29 31 29 31 29 21 9 3 7 8 4 3 3 3 5 7 5 6 11 9 5 5 4 2 4 4 3 4 4 5 4 3 5 5 3 5 4 2 1 4 4 2 2 5 5 6 3 1 1 5 5 5 5 3 2 2 4 2 3 4 3 2 2 3 4 5 9 13 11 8 9 12 11 10 8 7 7 7 6 7
19 14 13 21 25 22 18 21 30 30 29 32 23 11 5 5 8 9 8 5 2 2 3 6 7 7 10 8 5 7 4 1 5 4 3 4 5 6 6 5 4 5 4 3 3 5 4 3 3 3 2 5 5 4 6 6 4 3 3 6 6 5 5 4 4 3 4 3 3 3 2 3 3 2 6 12 14 12 12 16 14 8 4 5 6 7 8 10
22 18 15 21 26 22 18 23 30 28 30 29 15 6 8 9 7 8 9 5 2 2 3 7 11 9 8 3 2 7 4 1 4 5 4 6 6 7 6 6 6 4 6 5 2 3 4 3 4 2 1 4 5 2 4 7 3 2 2 5 3 4 5 3 3 5 3 1 2 2 3 4 4 5 9 10 12 14 14 14 11 7 5 6 7 8 9 10
24 23 19 22 28 26 19 24 28 27 30 22 8 6 9 9 7 6 8 7 5 6 7 7 7 7 6 3 2 7 2 2 6 4 4 5 3 6 7 6 7 6 6 7 3 2 4 2 4 3 2 1 2 2 2 3 3 2 3 3 5 4 7 5 2 1 3 1 3 2 4 5 4 6 9 5 6 11 12 11 11 11 9 9 13 13 11 10
28 25 24 24 29 28 22 24 27 27 27 15 6 9 9 9 7 5 6 8 8 10 10 6 4 5 7 5 5 9 3 3 6 4 5 4 2 7 8 5 7 10 8 5 2 3 5 1 4 1 1 2 2 2 4 3 3 5 3 5 4 2 4 4 2 3 3 2 4 1 4 5 3 4 6 5 4 5 6 9 12 14 13 15 20 18 13 12
31 25 25 24 28 30 25 22 25 26 21 8 6 11 8 8 6 7 8 9 10 10 7 5 4 3 8 8 6 10 7 5 7 5 5 5 5 7 10 6 7 12 13 7 3 3 5 3 3 1 2 3 4 3 3 4 3 4 4 4 4 3 2 2 2 2 1 2 4 4 5 4 5 5 2 1 2 2 2 8 9 13 17 21 23 20 13 12
25 23 22 24 28 32 27 22 22 22 14 6 10 10 5 7 6 8 17 14 8 7 6 5 3 2 6 7 6 8 8 7 9 6 4 5 5 6 12 10 6 12 17 9 4 3 4 4 2 2 1 2 4 1 4 1 2 3 2 2 2 2 4 3 3 3 3 3 3 4 5 4 7 6 6 8 8 4 5 7 6 13 22 23 23 20 14 11
9 10 14 23 31 32 28 23 19 15 8 7 12 6 1 4 3 8 21 20 7 5 5 4 4 5 5 4 5 7 6 5 8 7 4 6 5 5 10 11 6 11 15 8 4 4 3 4 3 1 3 1 2 3 6 7 5 3 3 3 2 1 2 2 1 2 4 4 2 2 5 6 6 4 8 9 9 8 8 7 8 14 19 20 19 16 9 5
2 1 6 23 35 34 31 22 11 8 6 7 8 3 2 1 2 5 16 18 9 4 6 6 6 6 6 5 4 5 5 4 7 7 4 5 7 5 9 12 9 10 9 3 3 4 3 3 5 2 1 3 5 4 5 7 6 5 6 7 7 5 4 3 2 1 2 3 4 3 4 8 6 5 7 8 8 8 8 8 9 10 10 9 6 2 1 4
4 2 3 22 38 39 33 17 5 5 5 5 5 2 0 1 3 5 7 8 5 2 4 6 6 5 5 6 6 6 6 4 6 7 5 8 9 5 9 15 17 18 13 5 4 4 4 4 5 3 4 5 6 5 3 4 2 2 3 4 5 4 5 6 4 3 1 1 2 4 2 8 4 4 5 6 7 6 5 4 3 3 1 1 3 3 2 7
7 4 3 18 40 45 29 9 3 5 4 3 3 2 1 1 1 3 3 3 3 2 3 4 5 6 5 5 7 8 9 6 7 9 7 7 8 7 12 20 23 20 12 6 4 4 4 4 4 0 3 3 5 5 2 1 1 2 3 2 5 3 4 6 5 4 4 3 3 3 3 6 2 2 3 3 4 2 1 3 3 3 2 2 1 2 7 13
8 9 7 12 31 40 23 6 7 10 7 4 4 3 2 1 1 2 2 3 3 2 4 3 5 7 4 4 8 10 11 7 5 9 7 4 6 10 16 24 23 16 11 10 11 9 6 2 4 4 1 3 3 4 3 2 2 4 3 3 6 5 6 4 2 4 2 6 8 5 6 6 2 3 1 2 3 4 3 4 4 2 3 6 8 12 17 18
6 7 9 12 16 16 11 7 9 11 8 6 5 5 4 2 3 3 3 2 2 3 4 3 4 6 4 5 8 8 12 8 4 6 5 2 3 5 15 25 23 16 15 17 19 16 9 4 5 7 6 6 7 6 5 4 3 2 2 5 8 8 9 5 3 4 5 6 8 7 10 5 2 3 2 4 6 6 4 3 6 8 11 14 15 18 20 18
5 2 4 7 9 7 6 5 5 7 8 8 5 5 7 5 3 3 4 2 1 2 2 1 3 6 4 6 8 7 12 9 3 5 7 6 3 3 12 23 23 19 15 15 22 17 4 3 8 10 12 13 12 8 5 8 7 5 7 9 9 9 11 7 5 5 6 4 5 12 13 9 7 4 2 5 6 6 8 10 14 17 17 17 18 20 22 22
3 1 3 3 3 4 4 5 2 2 6 12 8 6 11 11 4 3 4 4 3 3 2 1 2 6 6 9 8 7 12 10 4 6 9 9 3 2 7 15 19 21 14 14 23 15 4 4 11 11 14 14 8 6 7 11 12 13 12 11 11 11 11 10 9 11 7 6 7 11 7 9 16 9 6 11 10 6 9 16 23 26 24 24 24 27 30 30
3 1 4 4 2 2 3 4 4 2 2 9 8 5 11 13 8 6 5 3 2 4 3 1 3 6 9 12 9 6 9 8 5 6 6 6 3 1 2 3 7 13 10 10 16 9 4 7 10 8 12 11 4 6 8 11 11 12 13 14 14 14 14 15 18 16 10 8 13 9 11 12 21 10 9 12 13 13 18 24 25 25 25 25 26 28 28 25
5 3 2 4 3 3 3 6 8 5 2 5 6 5 9 12 13 10 3 3 2 3 3 4 7 8 9 11 10 8 9 9 8 6 4 6 6 4 4 1 2 6 7 7 7 4 3 6 6 8 11 11 5 7 9 11 9 8 11 13 15 17 18 20 21 19 15 13 14 8 7 14 18 6 7 14 20 20 21 20 19 20 22 22 22 24 23 22
5 2 1 2 4 4 7 8 9 6 4 4 5 6 8 11 15 12 4 5 6 4 4 6 7 6 6 7 9 9 10 14 13 10 8 7 5 4 5 4 3 4 5 5 3 3 3 4 3 7 6 9 6 7 8 8 7 7 9 10 13 16 18 20 20 15 11 10 13 10 8 14 12 4 9 20 20 15 17 20 21 24 23 22 24 27 27 27
8 4 1 2 2 3 7 7 6 5 4 4 6 7 8 11 14 12 6 5 7 5 7 9 6 2 2 4 8 7 10 13 13 14 17 15 12 11 7 6 9 8 4 5 4 3 4 2 1 6 4 7 5 8 8 4 3 2 6 9 14 14 14 15 12 9 9 11 13 10 9 14 10 5 11 19 12 11 19 23 23 25 26 26 28 29 28 27
15 11 4 3 2 3 4 4 5 4 3 5 8 9 10 10 9 10 8 5 6 8 10 11 8 4 2 4 6 6 8 10 8 13 18 14 13 13 6 8 16 13 7 7 4 2 6 5 2 4 6 6 4 7 9 7 5 3 9 13 15 13 12 8 3 5 11 12 10 10 11 15 12 5 8 13 8 12 21 25 24 26 27 27 28 27 26 26
Wind_Direction
190 189 186 180 180 180 179 178 175 174 172 172 172 173 175 175 175 176 178 179 180 183 188 194 200 204 204 202 198 201 208 211 216 217 217 213 205 201 197 200 205 203 197 195 191 185 180 172 174 178 176 172 166 169 166 177 189 141 116 95 171 173 188 186 184 195 163 160 182 184 173 150 146 152 144 137 148 149 147 162 157 164 154 158 182 159 171 176
194 190 184 181 182 182 181 179 177 175 172 171 171 173 175 176 176 177 179 178 179 183 188 195 199 201 200 197 195 199 209 213 220 220 213 206 202 199 196 201 209 206 197 191 187 181 172 165 168 171 174 170 161 168 166 180 177 125 100 98 215 207 187 203 206 193 163 162 174 179 179 167 164 160 148 140 152 148 139 150 157 167 161 158 164 158 173 181
199 192 184 182 184 183 182 181 178 176 174 172 171 172 175 178 179 179 181 178 178 183 189 195 198 199 196 193 192 197 208 215 223 220 206 199 200 199 196 199 204 201 194 188 183 175 165 161 164 165 169 168 161 171 164 164 178 159 96 106 234 216 185 280 188 193 199 169 163 170 180 177 172 166 160 159 160 164 172 173 173 182 177 172 170 167 176 184
203 195 185 182 185 184 184 182 180 177 175 174 172 172 175 178 180 182 183 180 180 185 189 195 197 197 194 190 187 194 203 215 226 215 198 195 197 199 200 199 197 194 192 188 186 178 166 161 167 169 169 174 164 174 175 167 183 165 118 164 223 195 162 24 109 206 202 168 163 166 170 177 175 172 172 159 143 231 218 200 202 203 191 183 180 178 181 187
206 198 187 183 185 186 185 183 181 179 177 177 174 173 175 178 182 186 186 183 183 186 189 194 197 195 192 187 184 186 181 188 224 207 193 194 196 200 200 197 191 188 189 191 194 186 173 167 174 176 175 186 153 155 186 167 149 112 111 204 186 168 157 121 100 164 171 164 161 158 159 174 171 173 180 167 162 225 219 214 220 218 207 200 195 190 188 190
206 200 191 186 185 186 186 184 182 181 179 179 177 175 175 178 184 189 190 187 185 187 191 194 195 193 189 186 184 179 177 172 209 194 190 194 197 197 194 192 187 185 190 194 198 193 186 177 174 179 176 164 163 159 165 164 150 120 257 298 139 180 160 135 148 158 161 158 156 159 166 166 157 175 191 187 200 216 222 228 228 226 223 216 208 201 197 196
206 202 196 189 186 187 188 186 184 183 181 180 179 177 175 179 186 192 194 191 189 189 191 194 192 192 187 185 184 183 197 213 157 182 188 189 194 195 190 191 188 190 195 193 198 199 196 184 172 176 163 106 179 178 143 153 144 119 185 236 113 141 135 119 130 160 165 157 157 164 165 165 161 171 194 208 219 219 224 219 220 226 226 222 213 209 209 209
206 203 199 193 189 188 188 189 187 185 183 181 181 179 177 179 187 195 196 194 193 192 192 192 190 189 186 187 186 189 210 212 167 185 188 185 191 193 191 193 194 198 200 199 198 195 195 188 175 173 163 149 182 172 143 134 83 99 156 183 126 116 126 114 115 144 156 148 150 157 155 173 178 171 210 220 219 214 209 193 196 212 220 223 219 216 215 214
208 204 200 197 195 190 188 190 190 189 185 183 183 182 179 180 189 196 198 198 196 195 194 190 189 188 185 189 187 189 214 210 210 215 190 187 191 192 194 196 200 203 203 203 196 191 193 189 184 182 192 198 169 154 151 144 225 162 142 152 137 118 128 124 119 129 140 140 148 155 128 167 181 212 251 231 220 210 207 205 208 209 213 216 217 219 216 215
211 206 201 199 199 194 190 190 192 192 188 186 185 184 181 181 190 197 199 199 198 199 195 190 189 187 187 189 183 186 212 208 214 211 191 191 190 191 195 198 205 206 203 200 195 191 187 187 193 189 195 182 154 130 150 158 183 149 125 118 117 118 129 137 133 123 130 131 150 166 116 143 173 186 255 236 212 204 206 210 217 221 219 215 213 216 215 217
214 210 204 200 201 199 192 190 192 193 191 188 187 186 184 183 190 197 200 199 199 201 196 192 188 187 191 188 185 191 202 204 211 204 193 192 190 191 196 201 206 204 200 196 192 189 183 184 183 178 191 176 150 103 120 149 145 136 123 96 61 77 108 140 139 133 133 117 138 153 108 345 129 186 245 234 196 201 208 211 217 222 225 225 220 218 218 221
219 214 208 203 203 201 195 192 192 195 193 189 189 189 186 185 190 197 200 200 200 201 198 193 187 189 190 190 200 200 188 196 201 196 191 190 190 192 194 197 200 199 197 192 189 186 183 178 173 178 177 157 146 92 128 143 135 130 119 92 6 13 43 183 149 149 151 121 151 121 49 298 234 223 237 225 194 205 210 213 218 222 227 227 226 225 224 226
223 218 211 206 205 203 198 194 193 196 195 191 190 190 187 186 189 195 200 200 200 200 199 194 190 191 186 192 210 206 197 206 196 189 189 191 192 191 189 190 193 193 193 195 189 181 182 181 181 183 160 148 136 117 137 135 130 127 93 96 51 18 349 244 204 172 150 129 168 133 210 276 255 232 231 227 213 204 205 213 217 222 228 227 228 230 230 233
221 220 213 207 206 204 201 197 194 196 196 193 192 191 189 187 188 194 198 199 200 200 198 195 190 188 189 198 216 213 214 226 203 188 187 191 190 186 185 184 186 189 194 196 189 181 183 186 188 172 149 145 130 121 118 98 112 114 60 72 86 113 263 285 288 163 141 162 195 130 169 260 267 250 247 236 218 205 206 211 216 221 227 229 231 234 237 239
216 217 211 207 206 204 202 199 196 196 195 194 194 192 190 188 187 190 195 198 197 198 197 194 188 183 193 208 219 216 216 223 202 185 185 188 185 184 183 182 184 186 186 184 184 185 178 180 182 150 127 135 130 118 77 33 45 48 102 302 347 151 252 304 262 174 159 197 192 119 183 260 270 278 305 198 197 207 218 217 219 224 229 233 235 237 241 243
211 211 209 207 205 203 202 199 198 196 194 195 196 193 191 189 186 187 192 194 192 194 193 190 186 179 181 206 211 208 206 209 192 181 184 181 180 183 180 180 180 175 169 168 177 179 169 165 153 128 122 131 127 109 66 53 357 4 105 194 249 157 245 308 279 210 179 160 108 113 196 258 283 291 47 164 192 209 224 228 228 230 236 239 240 242 243 245
208 210 211 208 205 202 200 200 200 196 193 194 196 194 192 188 186 186 188 189 188 186 185 184 180 180 204 212 202 199 195 194 185 182 183 177 177 177 173 173 172 165 157 155 165 167 163 153 136 129 118 113 109 102 95 71 262 284 57 161 219 174 173 252 278 265 123 129 260 24 208 246 273 287 274 179 199 216 228 236 236 237 243 246 248 247 246 248
205 213 214 209 205 201 199 200 200 196 192 191 194 194 191 188 185 184 185 185 178 169 174 177 165 171 236 215 197 194 191 187 183 182 180 176 174 169 166 165 163 158 148 144 154 157 153 136 126 123 56 83 137 116 129 204 189 187 187 165 210 181 179 223 242 245 78 87 228 90 254 258 267 278 268 245 232 239 241 243 246 249 251 254 254 252 250 250
205 216 217 210 205 200 198 198 197 195 191 189 190 191 188 183 177 179 185 182 170 157 172 181 170 157 276 202 189 187 188 184 181 180 177 174 169 164 161 157 157 154 145 137 141 146 135 103 100 120 134 164 185 156 169 201 173 169 173 149 159 160 218 244 250 262 114 110 230 212 229 264 269 273 269 261 258 254 251 252 254 256 257 258 257 255 253 251
210 217 220 215 207 200 197 196 195 192 189 187 186 183 178 167 156 171 183 182 177 165 113 187 183 189 0 178 181 180 178 178 181 178 175 174 167 160 154 151 153 146 142 147 148 142 119 117 156 183 187 187 193 177 155 160 145 141 127 108 141 150 207 248 266 299 72 133 252 241 235 267 269 268 269 269 274 265 253 253 254 256 257 258 257 256 255 253
212 216 220 219 211 203 197 194 192 189 187 186 184 182 178 169 160 174 177 181 189 179 40 187 189 204 336 169 177 175 168 171 181 178 176 176 168 160 159 153 139 122 149 139 123 101 94 139 206 215 201 186 182 167 119 100 100 102 122 121 103 132 191 227 246 304 10 133 273 330 292 265 262 265 269 270 273 259 249 245 250 255 256 257 257 258 258 257
210 212 212 216 215 206 198 192 188 188 186 185 185 185 185 182 181 185 176 176 196 188 69 182 191 206 232 177 177 171 164 164 181 183 177 175 172 170 168 149 122 140 159 106 103 68 73 186 235 225 187 142 98 119 109 93 89 84 111 126 116 150 177 308 303 317 14 105 274 344 334 272 263 261 265 262 253 256 256 249 253 256 257 258 259 261 262 262
204 202 203 212 217 208 200 192 187 187 187 187 187 185 186 186 183 179 175 165 189 194 195 182 193 205 193 177 180 175 167 162 179 186 180 176 177 175 163 143 120 140 130 129 134 121 134 232 242 187 143 122 87 87 101 85 78 88 109 128 160 209 138 170 285 314 9 57 261 332 317 281 281 282 271 261 253 261 268 262 259 258 257 260 262 265 267 267
198 200 208 216 218 211 200 190 188 188 188 189 188 185 186 186 181 172 168 139 154 196 201 191 196 205 195 176 182 183 180 176 181 185 182 180 177 170 166 153 122 136 159 156 144 145 193 248 193 105 97 121 115 92 110 108 69 43 124 139 162 191 168 171 205 330 2 6 23 26 335 294 312 331 289 278 269 269 276 276 268 259 254 259 262 263 265 270
198 203 213 213 214 209 196 190 190 187 188 190 186 183 182 182 181 173 160 99 29 192 200 198 201 209 201 185 184 184 183 189 190 186 185 185 178 166 167 160 139 166 180 144 130 146 218 266 133 114 65 93 114 124 154 137 110 358 204 176 171 163 150 119 73 70 37 351 336 27 360 289 315 324 276 290 326 295 293 301 286 274 266 261 260 260 264 271
198 203 207 206 209 202 193 192 190 185 187 188 182 178 178 177 176 173 151 52 305 191 179 189 195 201 197 190 178 170 170 209 199 188 185 186 183 169 157 159 132 170 169 139 130 159 216 18 92 126 108 89 95 125 182 135 113 167 233 172 149 125 115 115 101 82 84 251 296 45 111 260 310 304 266 285 314 300 300 300 284 276 275 272 268 270 271 270
196 199 200 203 207 200 191 190 187 184 184 183 178 175 175 172 170 169 138 29 271 178 150 177 182 185 191 185 172 161 145 186 178 186 184 182 185 175 168 176 108 150 163 131 140 231 171 94 67 89 92 93 109 151 193 131 115 197 210 129 125 113 121 135 110 96 202 234 323 17 121 230 296 269 265 304 318 300 292 286 278 273 276 284 284 281 271 260
190 192 196 202 209 200 187 187 188 183 179 177 173 172 172 170 166 158 124 34 204 148 147 176 172 177 182 176 175 169 142 156 152 185 183 177 182 175 175 191 153 138 139 127 177 255 119 152 160 123 94 117 175 212 180 119 98 231 185 124 128 123 124 121 98 91 21 33 317 317 116 201 271 273 295 342 313 288 277 268 272 278 286 297 292 275 248 236
186 187 196 204 209 194 186 193 190 181 174 171 168 168 168 164 157 138 96 201 163 107 144 165 164 174 170 166 178 172 142 153 146 172 175 175 182 173 154 181 147 106 47 84 162 223 51 178 188 140 130 175 199 245 183 133 96 168 141 99 77 74 81 79 88 96 44 34 257 258 200 205 266 285 308 354 256 257 267 268 270 282 291 296 274 254 223 220
186 183 190 202 198 183 187 195 184 177 171 165 164 163 158 152 144 134 197 213 156 99 137 158 170 172 157 154 182 176 144 145 131 148 162 176 179 158 122 149 129 93 34 36 92 227 330 62 83 97 135 168 146 91 102 145 134 131 108 70 55 34 37 42 56 84 64 304 255 243 223 185 274 281 258 215 220 224 252 287 286 287 290 246 228 206 197 210
185 179 182 194 184 175 183 187 177 174 169 162 158 154 148 139 119 154 193 196 113 109 116 152 179 164 160 163 175 172 124 60 142 148 155 169 165 149 125 137 106 76 55 41 44 333 1 52 23 11 108 131 108 68 41 54 105 111 87 82 80 359 13 23 360 44 109 257 260 256 226 157 218 262 254 242 251 239 233 262 277 296 295 228 212 187 184 198
181 179 181 185 177 171 178 181 173 169 166 161 156 151 144 121 184 196 196 147 150 184 170 182 203 179 170 164 150 154 118 96 169 159 154 152 162 177 162 169 156 105 140 169 110 358 20 14 313 340 267 167 112 77 39 13 40 84 92 101 96 352 11 358 315 10 220 245 266 284 247 202 229 244 256 264 263 244 224 231 257 296 288 240 204 195 189 204
178 178 175 179 176 172 175 176 171 167 164 162 157 148 130 127 193 209 209 172 191 193 161 166 174 160 159 153 152 163 129 148 187 163 153 150 161 208 237 208 155 126 171 177 134 119 348 315 313 23 281 220 155 122 133 278 125 134 136 129 129 120 103 260 266 273 259 256 282 294 270 264 270 256 244 248 250 243 246 261 284 307 285 239 211 207 209 224
176 180 176 178 178 171 171 173 171 169 164 163 158 140 134 175 198 205 203 208 217 113 129 144 124 129 160 166 178 171 130 158 178 141 126 136 152 203 231 224 172 104 111 146 151 161 167 278 240 172 206 206 184 164 156 148 146 175 160 132 144 156 158 203 216 204 241 269 293 294 269 202 216 275 251 250 267 278 275 273 282 297 262 222 219 223 230 234
177 184 178 177 179 173 169 173 173 170 166 163 158 153 171 190 204 199 195 204 199 128 121 139 129 140 175 173 194 186 154 170 176 139 150 170 177 194 198 203 194 133 128 159 199 159 159 235 255 277 290 171 177 208 130 110 109 238 127 108 157 184 145 141 184 176 176 288 291 252 237 214 211 278 278 267 280 285 277 271 270 267 242 229 238 242 242 239
178 181 180 181 182 174 168 174 174 171 168 163 160 181 190 204 198 183 180 172 167 147 124 131 137 149 172 147 197 211 200 129 161 157 185 192 200 198 195 202 190 175 161 159 170 165 155 248 307 343 355 85 144 209 121 118 167 170 123 170 213 174 114 114 211 67 89 230 267 225 252 292 328 296 288 297 294 282 275 277 273 261 252 252 254 252 252 254
179 177 183 187 183 175 169 173 175 174 172 167 182 191 202 215 181 139 162 155 137 133 127 148 170 149 167 169 188 199 193 128 159 175 189 188 236 199 196 220 192 185 187 155 158 197 154 171 316 20 129 332 8 82 63 49 118 127 167 209 190 122 90 107 170 2 45 243 273 272 247 284 316 284 311 349 324 293 261 258 267 266 261 258 257 254 255 263
180 178 186 190 182 175 170 170 174 175 169 162 210 206 212 216 174 128 150 143 127 135 137 168 174 137 173 181 184 186 176 165 177 186 174 184 241 196 175 205 201 189 196 174 149 195 136 128 308 2 168 300 352 82 79 14 62 130 174 176 124 135 176 107 148 185 141 240 278 297 282 261 214 232 283 216 201 112 217 245 257 259 252 249 252 256 258 264
179 181 192 192 179 173 170 168 170 170 164 173 208 214 214 200 185 157 158 149 132 145 154 180 173 130 177 175 168 177 183 181 175 178 181 188 234 205 177 187 190 188 194 178 151 185 139 135 222 302 265 311 1 112 181 221 42 69 98 111 91 132 166 163 157 161 165 204 258 310 316 268 222 211 183 202 219 207 235 252 242 241 243 244 254 264 268 273
186 186 203 190 177 172 168 161 161 165 174 201 203 217 272 182 196 175 166 161 155 158 169 193 174 154 170 170 162 173 183 178 166 180 211 193 210 231 195 188 173 178 186 173 146 171 137 138 174 305 331 228 206 206 187 177 157 137 152 175 191 91 112 153 139 122 136 155 191 282 294 267 247 207 179 203 233 230 231 242 239 246 250 252 261 269 270 290
208 347 228 188 175 169 162 156 160 177 197 222 211 227 332 164 192 193 176 172 176 176 167 169 164 160 155 152 173 178 161 150 170 189 219 202 205 230 206 189 159 148 162 173 191 175 147 142 149 154 242 200 226 248 197 189 184 168 182 195 183 149 123 143 228 262 116 136 173 176 273 271 241 191 189 200 216 233 239 234 237 254 263 264 268 266 90 25
194 30 236 187 176 167 159 159 185 197 203 225 209 193 262 142 181 206 195 177 177 172 153 159 161 160 157 162 175 170 157 159 182 189 209 214 210 213 199 181 161 156 161 176 198 156 117 106 116 163 221 212 242 270 224 211 230 174 210 204 169 145 132 145 195 236 160 182 166 123 276 275 232 178 215 210 207 239 245 212 237 295 299 45 73 89 45 351
203 216 221 185 176 168 161 163 198 204 232 223 176 169 190 112 158 203 213 182 177 161 154 173 173 172 181 175 164 165 169 177 192 195 206 220 218 215 194 175 164 164 166 166 178 150 121 108 106 143 306 306 299 315 340 31 65 209 240 171 149 172 149 147 177 177 162 198 158 106 256 266 288 285 265 212 200 251 111 101 54 43 98 102 58 333 324 324
198 222 245 205 180 171 169 172 182 202 220 181 176 215 214 230 216 181 189 194 192 156 154 183 185 183 193 156 154 174 182 181 202 205 205 215 214 210 194 180 171 169 180 186 178 172 180 156 117 124 19 349 330 324 299 275 196 205 228 170 175 169 124 112 115 109 192 215 166 156 238 246 299 311 322 45 358 340 36 77 56 22 332 312 303 305 304 302
170 214 242 239 214 192 194 207 192 201 197 162 191 214 194 232 232 191 178 179 175 155 165 210 194 175 170 154 157 176 184 182 186 195 206 239 228 206 192 189 183 180 196 195 173 164 179 184 146 155 172 191 204 216 219 207 171 192 210 189 191 171 152 158 117 123 231 219 158 187 231 236 324 323 344 8 352 333 316 326 327 311 305 300 293 291 286 281
163 203 215 232 249 247 247 252 206 193 185 173 193 203 191 214 234 183 173 181 220 176 169 271 186 162 152 159 162 177 194 200 169 163 194 206 220 231 195 194 195 196 203 187 165 156 144 193 189 190 197 202 204 203 155 124 140 202 207 186 186 185 177 161 122 174 206 157 170 221 231 244 258 245 269 295 289 284 286 294 291 282 276 275 275 278 277 275
181 213 171 183 244 218 240 283 264 163 176 183 185 183 193 205 206 164 184 203 212 182 176 342 161 172 177 167 166 186 198 202 176 163 191 197 209 303 195 191 199 203 202 172 166 156 91 205 207 204 214 218 205 189 157 143 171 200 196 181 184 188 180 172 194 207 168 124 229 228 194 242 255 225 207 257 262 259 265 265 264 266 266 266 268 271 273 273
201 199 171 171 185 174 210 241 207 124 149 189 191 186 194 201 197 188 197 202 188 181 186 225 204 202 188 171 169 183 188 198 205 189 187 182 171 62 154 184 203 201 190 166 172 159 109 204 211 198 221 236 191 162 176 171 185 199 190 183 183 183 183 193 213 215 173 177 237 216 147 216 253 231 184 231 244 239 247 254 259 264 266 265 265 266 267 270
217 276 238 187 196 196 180 166 159 159 205 197 202 209 200 200 202 203 176 111 194 222 182 199 221 215 195 177 173 173 176 187 207 216 191 165 167 146 132 139 220 187 164 151 179 174 148 209 207 175 215 241 201 168 188 186 186 198 196 187 183 187 192 200 214 218 203 209 240 235 182 232 253 233 182 234 245 246 253 261 262 259 258 259 259 259 262 267
207 239 270 226 234 203 171 149 144 169 202 195 208 217 206 204 206 209 184 149 193 211 178 204 222 202 191 191 186 191 192 185 191 202 180 159 179 184 166 183 184 156 147 148 176 196 187 219 182 141 200 247 214 180 199 194 182 196 206 200 194 195 199 209 218 217 206 224 248 255 258 261 257 202 228 250 250 248 258 259 254 255 256 256 258 260 263 265
209 192 59 329 276 199 175 160 144 162 188 194 207 206 207 215 209 203 210 205 205 197 177 191 201 142 116 182 191 215 211 193 195 193 176 170 182 185 187 188 164 147 156 170 165 167 178 206 72 110 176 245 219 181 183 150 100 219 237 220 206 202 206 214 216 200 189 208 233 244 253 260 253 200 239 256 240 220 247 251 249 256 258 257 259 261 265 268
221 226 262 329 308 229 194 160 147 167 189 199 206 205 211 222 205 191 208 233 226 219 202 187 174 123 98 186 202 221 194 174 179 182 177 178 178 172 174 178 167 161 162 163 159 165 160 156 132 142 182 250 252 168 153 111 89 245 246 222 204 203 214 212 173 201 206 197 206 222 228 245 254 214 231 257 230 215 246 254 250 253 256 257 259 261 265 271